User: anonymous   Login
Location: Holmes Observatory
(37.1039°N, 122.0513°W)
Time: 06:40:47
(UTC-07:00)
Language:

Cosmos 921 Rocket - Orbit

View from above orbital plane
View from above orbital plane
View from above satellite
View from above satellite

Ground track
Ground track

The orbit data is extracted from the following two-line orbital elements,

1 10096U 77055B   15153.13729287  .00000186  00000-0  22047-4 0  9998
2 10096 075.8351 244.4813 0043663 306.6968 053.0214 14.88265188 51252
Epoch (UTC): 02 June 2015 03:17:42
Eccentricity: 0.0043663
inclination: 75.8351°
perigee height: 573 km
apogee height: 634 km
right ascension of ascending node: 244.4813°
argument of perigee: 306.6968°
revolutions per day: 14.88265188
mean anomaly at epoch: 53.0214°
orbit number at epoch: 5125

The dashed part of the orbit path shows where the satellite is in the earth's shadow,  

DLR